[[{"header":{"parameterUnit":"m.s-1","parameterCategory":2,"la1":30.2991,"la2":30.254,"lo1":-89.0895,"lo2":-89.0444,"dy":0.0017,"dx":0.0017,"nx":28,"ny":28,"refTime":"2025-06-13T03:00:00:Z","depth":"0","parameterNumber":2,"parameterNumberName":"U-component_of_CURRENTS"},"data":[0,0,0,0,0,0,0,0,0,0,0,0,0,0,0,0,0,0,0,0,0,0,0,0,0,0,0,0,0,0,0,0,0,0,0,0,0,0,0,0,0,0,0,0,0,0,0,0,0,0,0,0,0,0,0,0,0,0,0.1204,0.1205,0,0.1219,0.1219,0.1219,0.1224,0.1224,0.1225,0.1225,0.1224,0.1224,0.1224,0,0,0,0,0,0,0,0,0,0,0,0,0,0.1153,0.1154,0.1204,0.1205,0.1205,0.1219,0.1219,0.1219,0.1224,0.1224,0.1225,0.1225,0.1224,0.1224,0.1224,0,0,0,0,0,0,0,0,0,0,0,0,0,0.117,0.1154,0.1204,0.1211,0.1212,0.1219,0.1219,0.1219,0.1224,0.1224,0.1225,0.1225,0.1224,0.1224,0.1224,0.1218,0,0,0.1223,0.1223,0,0,0,0,0,0,0,0,0.1169,0.1172,0.121,0.1211,0.1212,0.1222,0.12,0.1218,0.1224,0.1217,0.1225,0.1225,0.1223,0.1223,0.1222,0.1218,0.1218,0.1223,0.1223,0.1223,0.1223,0,0,0,0,0,0,0,0.1168,0.1171,0.1208,0.121,0.1211,0.1203,0.1206,0.1204,0.1217,0.1218,0.1219,0.1224,0.1223,0.1223,0.1222,0.1218,0.1223,0.1223,0.1223,0.1223,0.1214,0.1214,0,0,0,0,0,0,0.1172,0.117,0.1208,0.1209,0.1193,0.1205,0.1207,0.1217,0.1217,0.1218,0.1224,0.1224,0.1223,0.1223,0.1222,0.1212,0.1223,0.1222,0.1222,0.1214,0.1214,0.1214,0,0,0,0,0,0,0.1171,0.1175,0.1207,0.1191,0.1195,0.1206,0.1215,0.1217,0.122,0.1222,0.1222,0.1226,0.1223,0.1223,0.1222,0.1212,0.1222,0.1222,0.1214,0.1214,0.1214,0.1194,0,0,0,0,0,0,0.1169,0.1175,0.1181,0.1191,0.1196,0.1212,0.1216,0.1217,0.1223,0.1224,0.1224,0.1224,0.1223,0.1222,0.1222,0.1212,0.1222,0.1214,0.1214,0.1214,0.1194,0.1193,0.1191,0,0,0,0,0,0.1167,0.1177,0.1182,0.1186,0.1205,0.1212,0.1213,0.122,0.1223,0.1224,0.1224,0.1224,0.1221,0.1222,0.1221,0.1211,0.1214,0.1214,0.1214,0.1195,0.1193,0.1191,0,0,0,0,0,0,0.1158,0.1179,0.1184,0.12,0.1206,0.1214,0.1217,0.1221,0.1222,0.1223,0.1223,0.1223,0.122,0.1221,0.1222,0.121,0.1217,0.1217,0.1203,0.1202,0.12,0.1244,0.1222,0,0,0,0,0,0.1159,0.1172,0.1186,0.1197,0.1202,0.1209,0.1213,0.1217,0.1221,0.1222,0.1221,0.1221,0.1218,0.1214,0.1215,0.1206,0.1298,0.12,0.1198,0.1197,0.1233,0.1375,0.1391,0.1213,0.1213,0.1213,0,0,0.1159,0.1172,0.118,0.1196,0.1202,0.1199,0.1211,0.1219,0.1215,0.1221,0.1215,0.1218,0.1217,0.1209,0.1206,0.1206,0.1293,0.1197,0.1195,0.1233,0.1377,0.1395,0.1411,0.1213,0.1213,0.1213,0,0,0.1156,0.1176,0.1179,0.1183,0.1194,0.1198,0.12,0.1208,0.1211,0.1206,0.1211,0.1218,0.1203,0.1208,0.1205,0.1199,0.1285,0.1187,0.1209,0.1345,0.1362,0.1378,0.1516,0.1545,0.118,0.118,0.118,0,0.1152,0.1165,0.118,0.1177,0.1187,0.1195,0.1198,0.1193,0.1198,0.1224,0.1203,0.1239,0.1207,0.1238,0.1213,0.1197,0.1304,0.121,0.1348,0.1366,0.1383,0.152,0.1552,0.1179,0.118,0.118,0.118,0,0.1146,0.1155,0.1157,0.116,0.1167,0.1174,0.1177,0.1188,0.1194,0.1209,0.1252,0.1237,0.1283,0.124,0.121,0.13,0.1348,0.1336,0.136,0.1401,0.1541,0.1575,0.1178,0.1178,0.1179,0.1179,0,0,0.1147,0.1153,0.1154,0.1167,0.1166,0.1182,0.118,0.1213,0.1268,0.1254,0.1345,0.1286,0.1333,0.1336,0.1321,0.1387,0.1548,0.1405,0.1413,0.1556,0.1888,0.188,0.1916,0.1582,0.1588,0.1592,0.1938,0,0.1141,0.1144,0.1147,0.1159,0.117,0.1189,0.1204,0.1235,0.1278,0.1364,0.1376,0.1443,0.1355,0.1401,0.1456,0.1545,0.164,0.1458,0.1816,0.1827,0.1827,0.1955,0.1929,0.2232,0.1971,0.1977,0.1981,0,0.1136,0.1147,0.1155,0.12,0.121,0.1218,0.131,0.1323,0.1425,0.1475,0.1562,0.161,0.17,0.1626,0.1842,0.1748,0.1826,0.1875,0.1891,0.1923,0.1883,0.2149,0.2305,0.2216,0.2034,0.203,0.2026,0,0.1149,0.1162,0.118,0.1186,0.1222,0.1255,0.1282,0.1368,0.1437,0.1582,0.1693,0.181,0.1922,0.2032,0.2102,0.2022,0.2368,0.2279,0.2354,0.2355,0.2425,0.2421,0.2553,0.247,0.2469,0.2468,0.2467,0,0.1155,0.1173,0.1194,0.1206,0.1268,0.1283,0.1382,0.1437,0.1574,0.1701,0.1771,0.1929,0.2038,0.222,0.2246,0.2437,0.2511,0.2423,0.2466,0.2411,0.2402,0.2397,0.2333,0.2481,0.2478,0.2476,0.2474,0,0.1176,0.117,0.121,0.1256,0.1271,0.1324,0.1428,0.1537,0.1637,0.1828,0.1894,0.2107,0.2345,0.2451,0.2673,0.2657,0.2742,0.2835,0.2756,0.278,0.2704,0.2639,0.2751,0.2664,0.3007,0.3009,0.3011,0,0.1195,0.1211,0.1255,0.1297,0.1321,0.1392,0.1471,0.1561,0.1684,0.1929,0.2053,0.2331,0.2504,0.2837,0.2914,0.3065,0.2891,0.3093,0.2892,0.2757,0.272,0.2522,0.2424,0.2993,0.2994,0.2996,0.2997,0,0.1268,0.1276,0.1318,0.1375,0.145,0.152,0.1626,0.1712,0.1852,0.2011,0.2244,0.2392,0.2726,0.2889,0.3081,0.3136,0.2945,0.312,0.3036,0.2785,0.2537,0.2453,0.2694,0.3008,0.3007,0.3006,0.3005,0.3005,0.1358,0.1389,0.1432,0.149,0.1555,0.1619,0.1666,0.1801,0.1942,0.2133,0.231,0.2499,0.2782,0.305,0.3093,0.3156,0.3035,0.307,0.3035,0.2868,0.2679,0.2929,0.3225,0.3225,0.3225,0.3225,0.3225,0,0.1461,0.148,0.1549,0.1588,0.1636,0.1653,0.1762,0.1801,0.1923,0.2136,0.2299,0.2584,0.279,0.297,0.3156,0.3075,0.2884,0.3005,0.2735,0.2661,0.2988,0.2874,0.3039,0.3039,0.3039,0.3039,0.304,0.304,0.1531,0.1587,0.1586,0.1643,0.166,0.1682,0.1712,0.1779,0.1891,0.2071,0.2233,0.2408,0.2729,0.3024,0.3048,0.2986,0.2713,0.2654,0.2551,0.2789,0.2789,0.2789,0.2665,0.2784,0.2784,0.2122,0.2118,0.2114]},{"header":{"parameterUnit":"m.s-1","parameterCategory":2,"la1":30.2991,"la2":30.254,"lo1":-89.0895,"lo2":-89.0444,"dy":0.0017,"dx":0.0017,"nx":28,"ny":28,"refTime":"2025-06-13T03:00:00:Z","depth":"0","parameterNumber":3,"parameterNumberName":"V-component_of_CURRENTS"},"data":[0,0,0,0,0,0,0,0,0,0,0,0,0,0,0,0,0,0,0,0,0,0,0,0,0,0,0,0,0,0,0,0,0,0,0,0,0,0,0,0,0,0,0,0,0,0,0,0,0,0,0,0,0,0,0,0,0,0,-0.001,-0.001,0,-0.0066,-0.0067,-0.0067,-0.0085,-0.0085,-0.0085,-0.0084,-0.0139,-0.014,-0.0142,0,0,0,0,0,0,0,0,0,0,0,0,0,0.0059,0.0058,-0.001,-0.001,-0.0011,-0.0066,-0.0067,-0.0068,-0.0085,-0.0085,-0.0085,-0.0084,-0.0138,-0.014,-0.0142,0,0,0,0,0,0,0,0,0,0,0,0,0,0.0018,0.0057,-0.001,-0.0026,-0.0029,-0.0066,-0.0067,-0.0068,-0.0085,-0.0085,-0.0084,-0.0084,-0.0137,-0.014,-0.0142,-0.0166,0,0,-0.015,-0.0151,0,0,0,0,0,0,0,0,0.0021,0.0016,-0.0023,-0.0025,-0.0028,-0.0068,-0.0063,-0.0101,-0.0085,-0.0064,-0.0084,-0.0084,-0.0115,-0.0119,-0.0131,-0.0169,-0.0171,-0.015,-0.0152,-0.0153,-0.0154,0,0,0,0,0,0,0,0.0023,0.0018,-0.0032,-0.0024,-0.0027,-0.0039,-0.0044,-0.007,-0.0091,-0.0066,-0.0067,-0.0073,-0.0116,-0.0129,-0.0133,-0.0172,-0.015,-0.0153,-0.0154,-0.0155,-0.0227,-0.0227,0,0,0,0,0,0,0.0031,0.0021,-0.003,-0.0034,-0.0002,-0.0041,-0.0047,-0.0056,-0.0091,-0.0096,-0.0074,-0.0074,-0.0124,-0.013,-0.0134,-0.0163,-0.0153,-0.0155,-0.0157,-0.0226,-0.0227,-0.0227,0,0,0,0,0,0,0.0033,0.0027,-0.0028,-0.0008,-0.0015,-0.0042,-0.0053,-0.0057,-0.0069,-0.0097,-0.0102,-0.0081,-0.0124,-0.0131,-0.0158,-0.0165,-0.0157,-0.0159,-0.0226,-0.0226,-0.0227,-0.0221,0,0,0,0,0,0,0.0035,0.0028,0.0023,-0.0007,-0.0016,-0.0052,-0.0053,-0.0058,-0.0074,-0.0075,-0.0105,-0.011,-0.0125,-0.0154,-0.0161,-0.0168,-0.0161,-0.0225,-0.0226,-0.0227,-0.0221,-0.0221,-0.0222,0,0,0,0,0,0.0038,0.0026,0.0023,0.0017,-0.0022,-0.0053,-0.0059,-0.0076,-0.0074,-0.0084,-0.0102,-0.0109,-0.0163,-0.0157,-0.0164,-0.0173,-0.0225,-0.0226,-0.0227,-0.0221,-0.0221,-0.0222,0,0,0,0,0,0,0.0052,0.0022,0.0019,-0.0001,-0.0024,-0.0055,-0.0068,-0.0076,-0.0099,-0.0099,-0.0118,-0.0125,-0.0151,-0.0163,-0.0156,-0.0195,-0.0193,-0.0196,-0.0186,-0.0187,-0.0188,-0.0136,-0.0163,0,0,0,0,0,0.0054,0.0037,0.001,-0.0006,-0.0016,-0.004,-0.0054,-0.0066,-0.0089,-0.0099,-0.0119,-0.014,-0.0162,-0.0174,-0.0197,-0.0221,-0.0184,-0.023,-0.0231,-0.0231,-0.0194,-0.0137,-0.0127,-0.023,-0.023,-0.023,0,0,0.0054,0.0036,0.0027,-0.0004,-0.0022,-0.004,-0.0048,-0.0071,-0.0082,-0.0102,-0.0125,-0.0146,-0.0169,-0.0195,-0.0207,-0.0205,-0.019,-0.0232,-0.0232,-0.0194,-0.0136,-0.0126,-0.0116,-0.023,-0.023,-0.023,0,0,0.0046,0.0032,0.0017,-0.0001,-0.0028,-0.0044,-0.0048,-0.008,-0.0088,-0.0117,-0.0129,-0.0144,-0.0191,-0.0197,-0.0208,-0.0223,-0.0196,-0.0242,-0.0202,-0.0148,-0.0138,-0.0128,-0.0094,-0.0082,-0.024,-0.024,-0.024,0,0.005,0.0034,0.0008,-0.001,-0.0014,-0.0043,-0.0048,-0.0073,-0.0108,-0.0088,-0.0124,-0.0136,-0.0185,-0.0168,-0.0192,-0.0222,-0.0184,-0.02,-0.0144,-0.0134,-0.0124,-0.0092,-0.0078,-0.024,-0.024,-0.024,-0.024,0,0.0032,0.0023,0.0012,-0.0013,-0.0026,-0.0037,-0.0064,-0.007,-0.0083,-0.0086,-0.0074,-0.0123,-0.0103,-0.0152,-0.019,-0.0146,-0.0141,-0.0152,-0.0135,-0.0113,-0.0082,-0.0067,-0.024,-0.024,-0.024,-0.024,0,0,0.0042,0.001,0.0009,0.0028,-0.0018,-0.0011,-0.0034,-0.0022,0.0032,-0.0029,0.0055,-0.0044,-0.0023,-0.0032,-0.0067,-0.0057,-0.0011,-0.0079,-0.0076,-0.0031,0.0113,0.0067,0.0079,-0.0001,0.0002,0.0005,0.0099,0,0.0047,0.0045,0.0015,0.0033,0.0044,0.0026,0.0037,0.0044,0.0053,0.0121,0.0088,0.0136,0.0011,0.0048,0.0033,0.0027,0.0033,-0.0035,0.0074,0.0078,0.0047,0.0096,0.004,0.0117,0.0113,0.0116,0.0117,0,0.0049,0.0059,0.0073,0.0122,0.013,0.0131,0.0211,0.0212,0.0272,0.0299,0.0334,0.0339,0.035,0.0252,0.025,0.0222,0.0171,0.0137,0.0141,0.012,0.0061,0.0098,0.0143,-0.003,0.014,0.0138,0.0137,0,0.0113,0.0115,0.0148,0.0149,0.0175,0.0207,0.0228,0.0277,0.0358,0.0442,0.0548,0.0543,0.0609,0.0538,0.0423,0.037,0.0435,0.0363,0.0271,0.0267,0.0254,0.0243,0.0165,0.0378,0.0378,0.0378,0.0378,0,0.0149,0.0187,0.019,0.0213,0.0316,0.029,0.0414,0.0448,0.0559,0.0714,0.0665,0.081,0.0691,0.07,0.0544,0.0465,0.0535,0.0313,0.0305,0.0247,0.0235,0.0111,0.0012,0.0381,0.0381,0.038,0.0379,0,0.0238,0.0208,0.0289,0.033,0.0346,0.0434,0.0545,0.0676,0.0725,0.0939,0.0994,0.1069,0.107,0.0917,0.0839,0.0662,0.0459,0.0501,0.0423,0.0404,0.0127,0.0032,0.0021,-0.0056,0.044,0.0439,0.0439,0,0.03,0.0336,0.0405,0.0485,0.0511,0.0611,0.0719,0.077,0.0914,0.1106,0.1257,0.132,0.1381,0.1221,0.0921,0.0677,0.0498,0.0473,0.0338,0.0135,0.0024,-0.003,-0.0099,0.0314,0.0313,0.0312,0.0311,0,0.0482,0.0492,0.0575,0.07,0.0812,0.0931,0.106,0.1182,0.1284,0.1449,0.166,0.1712,0.1539,0.1282,0.092,0.0724,0.0335,0.0444,0.0276,-0.0035,-0.0132,-0.0218,0.0209,0.0302,0.0303,0.0304,0.0304,0.0304,0.0673,0.0767,0.0855,0.0972,0.1101,0.1234,0.1335,0.1486,0.1682,0.1902,0.1945,0.2002,0.1578,0.1072,0.0794,0.0243,0.0273,0.0056,-0.0026,-0.0048,-0.0176,0.0217,0.0265,0.0266,0.0267,0.0267,0.0268,0,0.0896,0.0965,0.1124,0.1247,0.1397,0.1392,0.1575,0.1669,0.1872,0.2061,0.22,0.1973,0.1447,0.0913,0.0173,-0.0179,-0.0309,-0.0357,-0.0463,-0.0499,-0.0109,-0.0176,-0.0271,-0.0271,-0.0271,-0.0271,-0.027,-0.027,0.1038,0.1195,0.1224,0.1465,0.1552,0.1705,0.1787,0.1929,0.2037,0.2208,0.2206,0.22,0.174,0.0437,-0.0409,-0.0592,-0.0824,-0.0875,-0.0951,-0.0739,-0.0708,-0.0679,-0.0765,-0.0982,-0.0983,-0.1325,-0.1329,-0.1332]}],[{"header":{"parameterUnit":"m.s-1","parameterCategory":2,"la1":30.2991,"la2":30.254,"lo1":-89.0895,"lo2":-89.0444,"dy":0.0017,"dx":0.0017,"nx":28,"ny":28,"refTime":"2025-06-13T03:00:00:Z","depth":"2","parameterNumber":2,"parameterNumberName":"U-component_of_CURRENTS"},"data":[0,0,0,0,0,0,0,0,0,0,0,0,0,0,0,0,0,0,0,0,0,0,0,0,0,0,0,0,0,0,0,0,0,0,0,0,0,0,0,0,0,0,0,0,0,0,0,0,0,0,0,0,0,0,0,0,0,0,0.1183,0.1183,0,0.1199,0.1199,0.1199,0.1205,0.1205,0.1205,0.1206,0.1205,0.1205,0.1204,0,0,0,0,0,0,0,0,0,0,0,0,0,0.1127,0.1128,0.1183,0.1183,0.1184,0.1199,0.1199,0.1199,0.1205,0.1205,0.1205,0.1206,0.1205,0.1205,0.1204,0,0,0,0,0,0,0,0,0,0,0,0,0,0.1146,0.1129,0.1183,0.119,0.1191,0.1199,0.1199,0.1199,0.1205,0.1205,0.1206,0.1206,0.1205,0.1205,0.1204,0.1198,0,0,0.1204,0.1204,0,0,0,0,0,0,0,0,0.1145,0.1148,0.1189,0.119,0.1191,0.1202,0.1179,0.1198,0.1205,0.1197,0.1206,0.1206,0.1204,0.1203,0.1203,0.1198,0.1198,0.1204,0.1203,0.1203,0.1203,0,0,0,0,0,0,0,0.1144,0.1147,0.1187,0.1189,0.119,0.1182,0.1185,0.1182,0.1197,0.1198,0.1199,0.1204,0.1204,0.1203,0.1203,0.1198,0.1204,0.1203,0.1203,0.1203,0.1196,0.1196,0,0,0,0,0,0,0.1148,0.1146,0.1186,0.1188,0.117,0.1183,0.1187,0.1196,0.1197,0.1199,0.1204,0.1205,0.1204,0.1203,0.1203,0.1195,0.1203,0.1203,0.1203,0.1196,0.1196,0.1196,0,0,0,0,0,0,0.1147,0.1151,0.1186,0.1168,0.1173,0.1185,0.1195,0.1197,0.12,0.1203,0.1203,0.1207,0.1204,0.1203,0.1203,0.1195,0.1203,0.1203,0.1196,0.1196,0.1196,0.1178,0,0,0,0,0,0,0.1145,0.1151,0.1158,0.1169,0.1174,0.1192,0.1195,0.1197,0.1204,0.1205,0.1205,0.1205,0.1204,0.1204,0.1203,0.1195,0.1203,0.1196,0.1196,0.1196,0.1179,0.1178,0.1177,0,0,0,0,0,0.1143,0.1153,0.1158,0.1163,0.1184,0.1192,0.1193,0.1201,0.1204,0.1205,0.1206,0.1205,0.1203,0.1203,0.1203,0.1194,0.1196,0.1196,0.1196,0.118,0.1178,0.1177,0,0,0,0,0,0,0.1133,0.1155,0.1161,0.1178,0.1185,0.1194,0.1198,0.1202,0.1203,0.1205,0.1205,0.1205,0.1202,0.1203,0.1203,0.1193,0.1199,0.1199,0.1187,0.1186,0.1185,0.1224,0.1202,0,0,0,0,0,0.1135,0.1148,0.1163,0.1176,0.118,0.1189,0.1193,0.1198,0.1203,0.1204,0.1203,0.1203,0.12,0.1197,0.1198,0.119,0.1259,0.1185,0.1184,0.1183,0.1215,0.134,0.1355,0.1196,0.1196,0.1196,0,0,0.1134,0.1148,0.1156,0.1174,0.118,0.1179,0.1191,0.12,0.1196,0.1203,0.1198,0.1201,0.1199,0.1192,0.1191,0.1191,0.1255,0.1182,0.1181,0.1215,0.1342,0.1358,0.1373,0.1196,0.1196,0.1196,0,0,0.1131,0.1152,0.1156,0.1161,0.1174,0.1178,0.1181,0.119,0.1193,0.119,0.1194,0.1201,0.1188,0.1193,0.1191,0.1186,0.1249,0.1175,0.1196,0.1316,0.1331,0.1346,0.1421,0.1442,0.117,0.117,0.117,0,0.1127,0.1141,0.1157,0.1156,0.1166,0.1176,0.1179,0.1176,0.1182,0.1207,0.1187,0.1221,0.1192,0.1221,0.1199,0.1184,0.1263,0.1196,0.1319,0.1335,0.135,0.1424,0.1448,0.1169,0.1169,0.1169,0.1169,0,0.1122,0.1131,0.1135,0.1139,0.1148,0.1155,0.1159,0.1172,0.1178,0.1193,0.1234,0.122,0.1265,0.1224,0.1196,0.1277,0.13,0.1308,0.1329,0.1366,0.1439,0.1465,0.1168,0.1168,0.1168,0.1168,0,0,0.1122,0.113,0.1131,0.1145,0.1147,0.1163,0.1162,0.1196,0.125,0.1236,0.1323,0.1267,0.1313,0.1316,0.1302,0.1357,0.1474,0.1371,0.1378,0.1456,0.1739,0.1694,0.1717,0.1528,0.1533,0.1537,0.1734,0,0.1116,0.1121,0.1125,0.1139,0.115,0.117,0.1186,0.1218,0.126,0.1343,0.1353,0.1418,0.1333,0.1379,0.1423,0.1478,0.1548,0.1419,0.1683,0.169,0.1657,0.1748,0.1577,0.1736,0.176,0.1764,0.1767,0,0.111,0.1123,0.1132,0.1179,0.119,0.1199,0.129,0.1306,0.1405,0.1453,0.1534,0.1579,0.1641,0.1587,0.1725,0.1661,0.171,0.1734,0.1744,0.1739,0.1696,0.171,0.1782,0.1811,0.1807,0.1804,0.1801,0,0.1121,0.1136,0.1155,0.1162,0.1202,0.1234,0.1266,0.135,0.1414,0.156,0.1659,0.1751,0.1836,0.1912,0.1918,0.1871,0.2089,0.2042,0.2051,0.2046,0.1971,0.1952,0.2195,0.2195,0.2194,0.2194,0.2193,0,0.1125,0.1143,0.1169,0.1181,0.1244,0.1264,0.1364,0.1419,0.1547,0.1666,0.1737,0.187,0.1935,0.2043,0.2034,0.2119,0.22,0.2097,0.2121,0.1951,0.1929,0.2049,0.2029,0.2201,0.22,0.2198,0.2197,0,0.1142,0.1139,0.1179,0.1229,0.1247,0.1301,0.1405,0.1507,0.1605,0.1779,0.1842,0.2013,0.215,0.2183,0.2318,0.2282,0.2348,0.2358,0.2122,0.2114,0.2196,0.2173,0.2429,0.2429,0.243,0.243,0.2431,0,0.1157,0.1174,0.1221,0.1264,0.129,0.1366,0.1443,0.153,0.1636,0.1859,0.1961,0.2153,0.226,0.2415,0.2399,0.2428,0.2422,0.2302,0.217,0.2237,0.2234,0.2209,0.2186,0.205,0.2047,0.2045,0.2043,0,0.1222,0.1231,0.1273,0.1328,0.1401,0.1467,0.1564,0.1633,0.1765,0.1888,0.205,0.2149,0.2325,0.2302,0.2357,0.233,0.2272,0.2259,0.247,0.1998,0.1891,0.1883,0.1871,0.2023,0.2025,0.2026,0.2027,0.2028,0.1297,0.1325,0.1361,0.1401,0.148,0.1518,0.1547,0.165,0.1738,0.1849,0.1985,0.2052,0.2156,0.214,0.2116,0.2097,0.2225,0.2125,0.2128,0.2134,0.2037,0.1935,0.2055,0.2057,0.2058,0.206,0.2061,0,0.135,0.1366,0.1431,0.145,0.1495,0.1528,0.16,0.1591,0.1625,0.1754,0.1794,0.1696,0.1751,0.1849,0.1811,0.1845,0.1769,0.1769,0.166,0.1684,0.1704,0.1578,0.1479,0.1477,0.1475,0.1473,0,0,0.1387,0.14,0.1373,0.1401,0.1445,0.1458,0.1459,0.1443,0.1473,0.1441,0.146,0.1578,0.1765,0.156,0.1582,0.1536,0.1569,0.1468,0.194,0.1832,0.1848,0.1928,0.1766,0,0,0,0,0]},{"header":{"parameterUnit":"m.s-1","parameterCategory":2,"la1":30.2991,"la2":30.254,"lo1":-89.0895,"lo2":-89.0444,"dy":0.0017,"dx":0.0017,"nx":28,"ny":28,"refTime":"2025-06-13T03:00:00:Z","depth":"2","parameterNumber":3,"parameterNumberName":"V-component_of_CURRENTS"},"data":[0,0,0,0,0,0,0,0,0,0,0,0,0,0,0,0,0,0,0,0,0,0,0,0,0,0,0,0,0,0,0,0,0,0,0,0,0,0,0,0,0,0,0,0,0,0,0,0,0,0,0,0,0,0,0,0,0,0,-0.0119,-0.012,0,-0.0173,-0.0174,-0.0174,-0.0193,-0.0192,-0.0192,-0.0192,-0.0246,-0.0248,-0.025,0,0,0,0,0,0,0,0,0,0,0,0,0,-0.0061,-0.0062,-0.0119,-0.012,-0.012,-0.0173,-0.0174,-0.0175,-0.0193,-0.0192,-0.0192,-0.0192,-0.0246,-0.0248,-0.025,0,0,0,0,0,0,0,0,0,0,0,0,0,-0.0098,-0.0062,-0.0119,-0.0135,-0.0137,-0.0173,-0.0174,-0.0175,-0.0193,-0.0192,-0.0192,-0.0191,-0.0245,-0.0248,-0.025,-0.0274,0,0,-0.0258,-0.0259,0,0,0,0,0,0,0,0,-0.0096,-0.01,-0.0132,-0.0134,-0.0137,-0.0175,-0.0173,-0.0208,-0.0193,-0.0172,-0.0192,-0.0191,-0.0223,-0.0227,-0.0239,-0.0276,-0.0278,-0.0258,-0.026,-0.0261,-0.0262,0,0,0,0,0,0,0,-0.0093,-0.0098,-0.0141,-0.0133,-0.0136,-0.015,-0.0155,-0.018,-0.0199,-0.0174,-0.0175,-0.0181,-0.0224,-0.0236,-0.024,-0.0279,-0.0258,-0.026,-0.0262,-0.0263,-0.0332,-0.0333,0,0,0,0,0,0,-0.0085,-0.0096,-0.0139,-0.0142,-0.0115,-0.0152,-0.0157,-0.0164,-0.0199,-0.0204,-0.0181,-0.0181,-0.0232,-0.0237,-0.0242,-0.0267,-0.0261,-0.0263,-0.0265,-0.0332,-0.0332,-0.0333,0,0,0,0,0,0,-0.0084,-0.0088,-0.0137,-0.012,-0.0127,-0.0153,-0.0161,-0.0165,-0.0176,-0.0204,-0.0209,-0.0187,-0.0232,-0.0238,-0.0265,-0.0269,-0.0264,-0.0267,-0.0332,-0.0332,-0.0332,-0.032,0,0,0,0,0,0,-0.0082,-0.0088,-0.009,-0.0119,-0.0128,-0.0159,-0.0161,-0.0166,-0.018,-0.0181,-0.0211,-0.0216,-0.0232,-0.0261,-0.0267,-0.0273,-0.0269,-0.0331,-0.0332,-0.0332,-0.032,-0.032,-0.032,0,0,0,0,0,-0.008,-0.0087,-0.009,-0.0095,-0.013,-0.0159,-0.0165,-0.0182,-0.018,-0.0189,-0.0207,-0.0215,-0.0269,-0.0263,-0.0271,-0.0277,-0.0331,-0.0332,-0.0332,-0.032,-0.032,-0.032,0,0,0,0,0,0,-0.0064,-0.0091,-0.0094,-0.0109,-0.0131,-0.0162,-0.0173,-0.0181,-0.0203,-0.0203,-0.0224,-0.023,-0.0255,-0.0269,-0.0262,-0.0299,-0.03,-0.0302,-0.0288,-0.0288,-0.0288,-0.0247,-0.0271,0,0,0,0,0,-0.0061,-0.0074,-0.01,-0.0112,-0.0122,-0.0145,-0.0158,-0.017,-0.0193,-0.0202,-0.0223,-0.0244,-0.0265,-0.0277,-0.0301,-0.0323,-0.0318,-0.0331,-0.0331,-0.0331,-0.0302,-0.0273,-0.0266,-0.0335,-0.0335,-0.0335,0,0,-0.0059,-0.0075,-0.0082,-0.011,-0.0127,-0.0144,-0.0153,-0.0174,-0.0184,-0.0205,-0.0227,-0.0248,-0.0272,-0.0297,-0.0308,-0.0307,-0.0324,-0.0332,-0.0331,-0.0302,-0.0273,-0.0265,-0.0259,-0.0335,-0.0335,-0.0335,0,0,-0.0063,-0.0074,-0.0086,-0.0104,-0.013,-0.0145,-0.0149,-0.0179,-0.0188,-0.0216,-0.0228,-0.0244,-0.0288,-0.0297,-0.0308,-0.0321,-0.0326,-0.0337,-0.0301,-0.0274,-0.0267,-0.0261,-0.0305,-0.0302,-0.0334,-0.0334,-0.0334,0,-0.0057,-0.0071,-0.0095,-0.0111,-0.0115,-0.0143,-0.0148,-0.0171,-0.0205,-0.0192,-0.0221,-0.0243,-0.0284,-0.0276,-0.0292,-0.0319,-0.032,-0.0301,-0.0271,-0.0264,-0.0258,-0.0304,-0.0301,-0.0334,-0.0334,-0.0334,-0.0334,0,-0.0071,-0.0078,-0.0087,-0.011,-0.0123,-0.0133,-0.0159,-0.0166,-0.018,-0.0188,-0.0185,-0.023,-0.022,-0.026,-0.0289,-0.0263,-0.0288,-0.0276,-0.0265,-0.025,-0.0301,-0.0298,-0.0333,-0.0333,-0.0333,-0.0333,0,0,-0.0058,-0.0087,-0.0088,-0.0074,-0.0115,-0.0113,-0.0132,-0.0128,-0.0088,-0.0143,-0.0083,-0.0166,-0.0153,-0.0163,-0.0193,-0.0196,-0.0204,-0.0217,-0.0216,-0.025,-0.0184,-0.0251,-0.0255,-0.0172,-0.017,-0.0169,-0.0259,0,-0.0052,-0.0055,-0.0081,-0.0069,-0.0061,-0.008,-0.0073,-0.0074,-0.0072,-0.0025,-0.0058,-0.0024,-0.0126,-0.0094,-0.012,-0.017,-0.0185,-0.0184,-0.02,-0.0202,-0.0252,-0.0249,-0.0231,-0.031,-0.0256,-0.0256,-0.0256,0,-0.0049,-0.0043,-0.0031,0.0003,0.0008,0.0008,0.0066,0.0064,0.0101,0.012,0.014,0.0139,0.0112,0.0059,-0.0039,-0.0028,-0.0095,-0.0152,-0.0156,-0.0204,-0.026,-0.0306,-0.0308,-0.0251,-0.0251,-0.0252,-0.0252,0,0.0005,0.0004,0.003,0.003,0.0045,0.007,0.0085,0.0116,0.0165,0.024,0.0301,0.0275,0.0279,0.0202,0.0027,0.0027,-0.0077,-0.0083,-0.0213,-0.0223,-0.0202,-0.0211,-0.0101,-0.01,-0.01,-0.01,-0.01,0,0.0035,0.0064,0.0065,0.0082,0.0158,0.0138,0.023,0.0256,0.0327,0.0409,0.0393,0.0455,0.0326,0.0241,0.0093,-0.009,-0.0032,-0.0201,-0.0229,-0.0209,-0.0217,-0.0143,-0.0146,-0.0103,-0.0103,-0.0102,-0.0101,0,0.0099,0.0081,0.0137,0.0167,0.0182,0.0244,0.0318,0.0403,0.0437,0.0551,0.0592,0.0588,0.0453,0.0269,0.0119,-0.0015,-0.0163,-0.0229,-0.0245,-0.0272,-0.0346,-0.0348,-0.0358,-0.0361,-0.0363,-0.0365,-0.0366,0,0.0139,0.0168,0.0215,0.0268,0.0285,0.036,0.0431,0.047,0.0522,0.0621,0.0668,0.0621,0.0532,0.0234,0.0028,-0.0241,-0.0244,-0.0353,-0.0335,-0.0335,-0.0362,-0.0361,-0.036,-0.0338,-0.0339,-0.034,-0.0341,0,0.0246,0.0255,0.0301,0.0384,0.0459,0.0531,0.0584,0.0621,0.0664,0.0694,0.0677,0.0632,0.0424,0.0173,-0.0126,-0.0282,-0.0314,-0.0381,-0.0333,-0.0278,-0.0323,-0.0348,-0.0346,-0.035,-0.0349,-0.0349,-0.0348,-0.0348,0.0335,0.037,0.0409,0.0455,0.0596,0.0621,0.0641,0.0656,0.0657,0.0661,0.063,0.0569,0.0416,0.0011,-0.0223,-0.0412,-0.041,-0.0462,-0.0455,-0.0448,-0.0431,-0.0477,-0.0535,-0.0535,-0.0535,-0.0536,-0.0536,0,0.0344,0.0351,0.0459,0.0491,0.062,0.0685,0.0698,0.0658,0.0575,0.0658,0.0568,0.0399,0.0174,0.0016,-0.027,-0.0473,-0.0457,-0.0529,-0.0448,-0.044,-0.0433,-0.041,-0.0511,-0.0511,-0.0511,-0.0512,0,0,0.0334,0.0333,0.0299,0.0408,0.0532,0.0653,0.0641,0.0573,0.0569,0.052,0.0548,0.0509,0.0303,0.0105,-0.0173,-0.0323,-0.0333,-0.0363,-0.0369,-0.0236,-0.0225,-0.0391,-0.035,0,0,0,0,0]}],[{"header":{"parameterUnit":"m.s-1","parameterCategory":2,"la1":30.2991,"la2":30.254,"lo1":-89.0895,"lo2":-89.0444,"dy":0.0017,"dx":0.0017,"nx":28,"ny":28,"refTime":"2025-06-13T03:00:00:Z","depth":"4","parameterNumber":2,"parameterNumberName":"U-component_of_CURRENTS"},"data":[0,0,0,0,0,0,0,0,0,0,0,0,0,0,0,0,0,0,0,0,0,0,0,0,0,0,0,0,0,0,0,0,0,0,0,0,0,0,0,0,0,0,0,0,0,0,0,0,0,0,0,0,0,0,0,0,0,0,0.0593,0.0593,0,0.0645,0.0645,0.0646,0.0711,0.0712,0.0713,0.0714,0.077,0.0771,0.0771,0,0,0,0,0,0,0,0,0,0,0,0,0,0.0573,0.0573,0.0593,0.0593,0.0594,0.0645,0.0645,0.0646,0.0711,0.0712,0.0713,0.0714,0.077,0.0771,0.0771,0,0,0,0,0,0,0,0,0,0,0,0,0,0.0599,0.0573,0.0593,0.0632,0.0636,0.0644,0.0645,0.0646,0.071,0.0712,0.0713,0.0715,0.077,0.0771,0.0772,0.0747,0,0,0.0774,0.0774,0,0,0,0,0,0,0,0,0.0598,0.06,0.0626,0.0629,0.0634,0.0673,0.0659,0.068,0.071,0.0682,0.0714,0.0716,0.0737,0.074,0.0747,0.0749,0.0752,0.0774,0.0775,0.0775,0.0775,0,0,0,0,0,0,0,0.0596,0.0598,0.0614,0.0626,0.0631,0.0655,0.066,0.0664,0.0701,0.0685,0.069,0.0695,0.0739,0.0746,0.0749,0.0753,0.0774,0.0775,0.0775,0.0776,0.0865,0.0867,0,0,0,0,0,0,0.0586,0.0596,0.0612,0.0615,0.0619,0.0654,0.066,0.0659,0.0701,0.0709,0.0693,0.0697,0.0744,0.0748,0.0751,0.0848,0.0775,0.0776,0.0776,0.0863,0.0865,0.0867,0,0,0,0,0,0,0.0585,0.0586,0.061,0.0607,0.0612,0.0653,0.0651,0.0659,0.0691,0.0707,0.0715,0.0719,0.0745,0.075,0.0784,0.0846,0.0776,0.0777,0.0861,0.0864,0.0866,0.0962,0,0,0,0,0,0,0.0584,0.0585,0.0588,0.0606,0.0612,0.0632,0.065,0.0659,0.069,0.0696,0.0731,0.0737,0.0747,0.0783,0.0785,0.0846,0.0778,0.0859,0.0862,0.0866,0.0956,0.0967,0.0977,0,0,0,0,0,0.0583,0.0576,0.0588,0.059,0.0611,0.0633,0.0638,0.0673,0.0689,0.0706,0.0736,0.0737,0.0808,0.0785,0.0787,0.0849,0.0857,0.0861,0.0865,0.0952,0.0965,0.0977,0,0,0,0,0,0,0.056,0.0582,0.0596,0.0594,0.0621,0.0644,0.0662,0.068,0.0715,0.0733,0.0746,0.0753,0.0812,0.0806,0.078,0.0885,0.0838,0.0843,0.0903,0.0916,0.0926,0.0885,0.0778,0,0,0,0,0,0.0555,0.0566,0.0588,0.0591,0.0607,0.0637,0.0653,0.0679,0.0707,0.0726,0.0754,0.0788,0.0824,0.085,0.0871,0.0914,0.0884,0.0959,0.097,0.0979,0.0947,0.0976,0.0986,0.0881,0.0881,0.0881,0,0,0.0548,0.0561,0.0567,0.0589,0.0615,0.0645,0.0652,0.0687,0.0729,0.0724,0.0795,0.0818,0.084,0.0905,0.0932,0.0913,0.0995,0.0984,0.0992,0.0954,0.0982,0.0992,0.1001,0.0884,0.0883,0.0883,0,0,0.0542,0.0552,0.0568,0.0595,0.0637,0.0659,0.0673,0.0717,0.0761,0.0818,0.0837,0.0884,0.0942,0.0972,0.0994,0.1064,0.1043,0.1094,0.1122,0.1154,0.1162,0.1169,0.1147,0.1151,0.1107,0.1108,0.1108,0,0.0534,0.0554,0.0576,0.0604,0.0629,0.0669,0.0699,0.0746,0.0801,0.0828,0.0858,0.0941,0.0973,0.1032,0.1075,0.1089,0.1081,0.1079,0.1167,0.1173,0.1178,0.1153,0.1157,0.1113,0.1112,0.1111,0.1111,0,0.0545,0.0572,0.0586,0.0638,0.0665,0.0699,0.076,0.0808,0.0866,0.0903,0.0982,0.1028,0.1073,0.1115,0.1124,0.1188,0.116,0.1173,0.1133,0.1194,0.1164,0.1166,0.112,0.1118,0.1117,0.1115,0,0,0.0501,0.0579,0.0589,0.0633,0.0689,0.0722,0.0787,0.0848,0.09,0.0975,0.1033,0.1119,0.1136,0.1158,0.1189,0.122,0.1275,0.1221,0.122,0.1191,0.131,0.1296,0.1295,0.1317,0.1318,0.1319,0.1274,0,0.0509,0.057,0.0602,0.0677,0.0717,0.0769,0.0827,0.089,0.0955,0.1025,0.108,0.1155,0.1162,0.1212,0.1242,0.1263,0.1283,0.1282,0.1257,0.1254,0.1231,0.1299,0.1322,0.1275,0.1275,0.1275,0.1275,0,0.0514,0.0557,0.0623,0.0718,0.0741,0.0794,0.0884,0.0945,0.1025,0.1078,0.113,0.1174,0.1228,0.1248,0.1278,0.1282,0.1295,0.1302,0.1302,0.1244,0.1244,0.12,0.1277,0.1277,0.1277,0.1277,0.1277,0,0.0486,0.0579,0.0638,0.0669,0.0769,0.0822,0.0884,0.0961,0.1021,0.1116,0.1158,0.121,0.1269,0.1282,0.1319,0.1307,0.1342,0.1331,0.1309,0.1306,0.1285,0.1278,0.1347,0.1347,0.1347,0.1347,0.1348,0,0.0477,0.053,0.0648,0.0681,0.0766,0.084,0.0931,0.099,0.1077,0.1126,0.1194,0.1237,0.1291,0.1325,0.1323,0.1324,0.1352,0.13,0.1305,0.1326,0.1325,0.1285,0.1279,0.1346,0.1346,0.1346,0.1347,0,0.0441,0.0507,0.0592,0.0715,0.0757,0.0829,0.0959,0.1007,0.1101,0.1164,0.1201,0.1276,0.1317,0.1349,0.138,0.1343,0.1342,0.1341,0.134,0.1346,0.1261,0.126,0.1263,0.1262,0.1262,0.1261,0.1261,0,0.0424,0.0462,0.0609,0.0656,0.0721,0.0836,0.0885,0.1003,0.1048,0.117,0.118,0.1275,0.1312,0.1311,0.1362,0.1352,0.1356,0.1321,0.1292,0.1254,0.1258,0.1258,0.1258,0.126,0.126,0.126,0.126,0,0.0387,0.0455,0.0528,0.0616,0.0693,0.0771,0.0866,0.09,0.1014,0.1104,0.115,0.1195,0.1247,0.1276,0.1315,0.1303,0.1319,0.1314,0.1314,0.1287,0.1251,0.1255,0.1256,0.1258,0.1258,0.1258,0.1258,0,0.0368,0.0409,0.05,0.0581,0.0649,0.0684,0.0756,0.0823,0.089,0.1029,0.1042,0.1137,0.1224,0.1253,0.1275,0.1288,0.1252,0.1189,0.1194,0.1197,0.1208,0.1155,0.1132,0,0,0,0,0,0.0352,0.0384,0.0445,0.0523,0.0578,0.0619,0.0715,0.0783,0.0898,0.0901,0.0981,0.103,0.1096,0.1152,0.1151,0.1241,0.1249,0.1234,0.1175,0.1248,0.125,0.1276,0,0,0,0,0,0,0.0336,0.0393,0.0426,0.0445,0.0476,0.0523,0.0581,0.0661,0.069,0.0815,0.0859,0.0962,0.1042,0.1078,0.1124,0.1144,0.1086,0.1309,0.1307,0.1246,0.1248,0.125,0.1278,0,0,0,0,0]},{"header":{"parameterUnit":"m.s-1","parameterCategory":2,"la1":30.2991,"la2":30.254,"lo1":-89.0895,"lo2":-89.0444,"dy":0.0017,"dx":0.0017,"nx":28,"ny":28,"refTime":"2025-06-13T03:00:00:Z","depth":"4","parameterNumber":3,"parameterNumberName":"V-component_of_CURRENTS"},"data":[0,0,0,0,0,0,0,0,0,0,0,0,0,0,0,0,0,0,0,0,0,0,0,0,0,0,0,0,0,0,0,0,0,0,0,0,0,0,0,0,0,0,0,0,0,0,0,0,0,0,0,0,0,0,0,0,0,0,-0.0002,-0.0002,0,-0.0016,-0.0017,-0.0017,-0.0086,-0.0088,-0.0089,-0.009,-0.0166,-0.0167,-0.0167,0,0,0,0,0,0,0,0,0,0,0,0,0,-0.0066,-0.0064,-0.0002,-0.0002,-0.0002,-0.0016,-0.0017,-0.0017,-0.0086,-0.0088,-0.0089,-0.0091,-0.0166,-0.0167,-0.0167,0,0,0,0,0,0,0,0,0,0,0,0,0,-0.0057,-0.0064,-0.0002,-0.0037,-0.004,-0.0016,-0.0017,-0.0017,-0.0086,-0.0088,-0.009,-0.0092,-0.0166,-0.0167,-0.0168,-0.013,0,0,-0.0171,-0.0171,0,0,0,0,0,0,0,0,-0.0057,-0.0054,-0.0031,-0.0034,-0.0038,-0.005,-0.0067,-0.0057,-0.0085,-0.007,-0.0091,-0.0093,-0.013,-0.0134,-0.0134,-0.0133,-0.0137,-0.0171,-0.0171,-0.0172,-0.0172,0,0,0,0,0,0,0,-0.0058,-0.0054,-0.001,-0.0031,-0.0035,-0.0062,-0.0063,-0.0066,-0.009,-0.0072,-0.0076,-0.0074,-0.0133,-0.0133,-0.0136,-0.0138,-0.0171,-0.0172,-0.0172,-0.0172,-0.0177,-0.0176,0,0,0,0,0,0,-0.0047,-0.0054,-0.0009,-0.001,-0.0051,-0.0059,-0.006,-0.0045,-0.0089,-0.0097,-0.0072,-0.0077,-0.013,-0.0135,-0.0139,-0.0149,-0.0172,-0.0173,-0.0173,-0.0177,-0.0177,-0.0176,0,0,0,0,0,0,-0.0048,-0.0043,-0.0008,-0.0032,-0.003,-0.0055,-0.0038,-0.0044,-0.0057,-0.0088,-0.0098,-0.008,-0.0132,-0.0138,-0.0142,-0.015,-0.0173,-0.0174,-0.0178,-0.0177,-0.0176,-0.0134,0,0,0,0,0,0,-0.005,-0.0042,-0.0032,-0.0031,-0.0028,0.0013,-0.0036,-0.0043,-0.0051,-0.0058,-0.0097,-0.0106,-0.0134,-0.014,-0.0143,-0.0152,-0.0175,-0.0178,-0.0177,-0.0177,-0.0136,-0.0132,-0.0129,0,0,0,0,0,-0.0052,-0.0007,-0.0031,-0.0026,-0.001,0.0014,0.0014,-0.0015,-0.0049,-0.0038,-0.0071,-0.0106,-0.0138,-0.0139,-0.0143,-0.0153,-0.0179,-0.0178,-0.0177,-0.0138,-0.0133,-0.0129,0,0,0,0,0,0,-0.0023,-0.001,-0.0036,0.0009,0.0007,0.0003,0.0015,-0.001,-0.0026,-0.0042,-0.0084,-0.0093,-0.0103,-0.0124,-0.0125,-0.0152,-0.017,-0.0169,-0.0139,-0.0135,-0.0131,-0.0189,-0.0176,0,0,0,0,0,-0.0013,0.0018,0.0015,0.0048,0.0049,0.0026,0.0029,0.0009,-0.0002,-0.0013,-0.0041,-0.0075,-0.0096,-0.0113,-0.0126,-0.0129,-0.0179,-0.0142,-0.0138,-0.0135,-0.0184,-0.0252,-0.026,-0.0173,-0.0173,-0.0173,0,0,0.001,0.0018,0.0036,0.0054,0.0047,0.0059,0.0022,0.0035,0.0029,-0.0016,-0.0028,-0.0053,-0.009,-0.01,-0.0108,-0.0124,-0.0173,-0.0133,-0.013,-0.0183,-0.0252,-0.0261,-0.0269,-0.0172,-0.0172,-0.0172,0,0,0.0066,0.0073,0.0105,0.0107,0.0102,0.0092,0.0095,0.0085,0.0061,0.0058,0.0014,-0.0024,-0.0035,-0.0083,-0.0105,-0.0088,-0.0143,-0.0082,-0.0122,-0.0184,-0.0193,-0.0202,-0.0227,-0.0238,-0.009,-0.009,-0.009,0,0.0084,0.0109,0.0119,0.0138,0.0125,0.0106,0.0109,0.011,0.0095,0.005,0.0058,-0.0028,-0.0041,-0.0108,-0.0105,-0.0086,-0.012,-0.0132,-0.0183,-0.0193,-0.0203,-0.0226,-0.024,-0.0088,-0.0088,-0.0089,-0.0089,0,0.0146,0.0154,0.0177,0.0181,0.0183,0.019,0.0177,0.0159,0.0124,0.0091,0.0022,-0.0002,-0.0082,-0.0069,-0.0082,-0.0162,-0.0159,-0.016,-0.0199,-0.0209,-0.0232,-0.0247,-0.0085,-0.0086,-0.0086,-0.0087,0,0,0.019,0.021,0.0208,0.0177,0.0187,0.0181,0.0179,0.0129,0.0076,0.0059,-0.0028,-0.0059,-0.0116,-0.0148,-0.0171,-0.0224,-0.0281,-0.0227,-0.0231,-0.0261,-0.0402,-0.033,-0.0339,-0.0292,-0.0296,-0.0298,-0.0372,0,0.0205,0.022,0.0233,0.0217,0.0202,0.0173,0.0162,0.0117,0.0074,0.0006,-0.0065,-0.0125,-0.0127,-0.0174,-0.0231,-0.0276,-0.0327,-0.026,-0.0383,-0.0387,-0.0331,-0.0357,-0.0309,-0.0383,-0.0387,-0.0389,-0.0391,0,0.0225,0.0221,0.021,0.0159,0.015,0.0147,0.0051,0.0045,-0.0035,-0.0078,-0.017,-0.0211,-0.0307,-0.0288,-0.0415,-0.0373,-0.0405,-0.0427,-0.043,-0.0409,-0.0345,-0.0384,-0.0418,-0.0416,-0.0414,-0.0412,-0.0411,0,0.0179,0.0181,0.015,0.0143,0.0119,0.0077,0.0056,-0.0007,-0.0036,-0.0141,-0.018,-0.0304,-0.0351,-0.044,-0.0474,-0.0463,-0.0587,-0.0571,-0.0539,-0.0532,-0.0594,-0.0585,-0.068,-0.068,-0.068,-0.0679,-0.0679,0,0.0154,0.0116,0.0119,0.0098,0.0032,0.0034,-0.0034,-0.0082,-0.0124,-0.0162,-0.0231,-0.0277,-0.0395,-0.0459,-0.051,-0.0562,-0.062,-0.0578,-0.0567,-0.0563,-0.055,-0.0601,-0.0591,-0.0682,-0.0682,-0.0681,-0.0681,0,0.0074,0.0098,0.0045,0.0018,0.0008,-0.0049,-0.0063,-0.0106,-0.0129,-0.0178,-0.0207,-0.0278,-0.0357,-0.044,-0.056,-0.0581,-0.065,-0.0648,-0.0621,-0.0601,-0.0546,-0.0533,-0.0656,-0.0655,-0.0653,-0.0652,-0.0651,0,0.0015,-0.0005,-0.0029,-0.0052,-0.0072,-0.0116,-0.0137,-0.0135,-0.0147,-0.0164,-0.0189,-0.0257,-0.0309,-0.0406,-0.0507,-0.0614,-0.0608,-0.0648,-0.0636,-0.0578,-0.0555,-0.0543,-0.0532,-0.0649,-0.0649,-0.0649,-0.0648,0,-0.011,-0.0102,-0.014,-0.0145,-0.0168,-0.0184,-0.0195,-0.0177,-0.0154,-0.0182,-0.0157,-0.0202,-0.0273,-0.0369,-0.0439,-0.0515,-0.0638,-0.0635,-0.0639,-0.0628,-0.0571,-0.0546,-0.0537,-0.0644,-0.0645,-0.0645,-0.0645,0,-0.0224,-0.0249,-0.0232,-0.024,-0.0257,-0.0213,-0.0219,-0.0181,-0.0155,-0.0128,-0.0124,-0.0178,-0.023,-0.0317,-0.0389,-0.0454,-0.0475,-0.0494,-0.0505,-0.0512,-0.044,-0.0344,-0.0367,0,0,0,0,0,-0.0306,-0.027,-0.0309,-0.0265,-0.0276,-0.0241,-0.0232,-0.0213,-0.0159,-0.013,-0.0103,-0.0151,-0.0221,-0.0267,-0.0318,-0.0399,-0.0517,-0.0464,-0.0552,-0.062,-0.0625,-0.0559,0,0,0,0,0,0,-0.0337,-0.0352,-0.0305,-0.0257,-0.0225,-0.0193,-0.0169,-0.015,-0.011,-0.0085,-0.0121,-0.0143,-0.0228,-0.0175,-0.0306,-0.0332,-0.039,-0.051,-0.0511,-0.0617,-0.0622,-0.0626,-0.0559,0,0,0,0,0]}]]